Time,TemperatureF,DewpointF,PressureIn,WindDirection,WindDirectionDegrees,WindSpeedMPH,WindSpeedGustMPH,Humidity,HourlyPrecipIn,Conditions,Clouds,dailyrainin,SoftwareType,DateUTC
2013-05-15 00:01:00,58.6,23.9,30.02,NNE,23,2.7,3.1,26,0.00,,,0.00,VWS V14.00,2013-05-15 04:01:00,
2013-05-15 00:02:00,58.5,23.7,30.02,NNE,24,4.0,4.0,26,0.00,,,0.00,VWS V14.00,2013-05-15 04:02:00,
2013-05-15 00:07:00,58.5,24.6,29.99,NNE,29,0.0,2.7,27,0.00,,,0.00,VWS V14.00,2013-05-15 04:07:00,
2013-05-15 00:13:00,58.5,24.6,29.99,NNE,29,2.2,3.1,27,0.00,,,0.00,VWS V14.00,2013-05-15 04:13:00,
2013-05-15 00:18:00,58.3,24.5,29.99,NE,34,0.0,0.0,27,0.00,,,0.00,VWS V14.00,2013-05-15 04:18:00,
2013-05-15 00:23:00,58.1,24.3,30.02,NE,42,0.0,0.0,27,0.00,,,0.00,VWS V14.00,2013-05-15 04:23:00,
2013-05-15 00:28:00,57.9,24.2,30.02,NE,42,0.0,0.0,27,0.00,,,0.00,VWS V14.00,2013-05-15 04:28:00,
2013-05-15 00:33:00,57.9,24.2,30.02,NE,42,0.0,0.0,27,0.00,,,0.00,VWS V14.00,2013-05-15 04:33:00,
2013-05-15 00:38:00,57.7,24.9,30.02,NE,42,0.0,0.0,28,0.00,,,0.00,VWS V14.00,2013-05-15 04:38:00,
2013-05-15 00:43:00,57.6,24.7,30.02,NE,42,0.0,0.0,28,0.00,,,0.00,VWS V14.00,2013-05-15 04:43:00,
2013-05-15 00:48:00,57.4,24.6,30.02,NE,42,0.0,0.0,28,0.00,,,0.00,VWS V14.00,2013-05-15 04:48:00,
2013-05-15 00:53:00,57.4,24.6,30.02,NE,42,0.0,0.0,28,0.00,,,0.00,VWS V14.00,2013-05-15 04:53:00,
2013-05-15 00:58:00,57.2,25.2,30.02,NE,42,0.0,0.0,29,0.00,,,0.00,VWS V14.00,2013-05-15 04:58:00,
2013-05-15 01:03:00,57.0,25.9,30.02,NE,42,0.0,0.0,30,0.00,,,0.00,VWS V14.00,2013-05-15 05:03:00,
2013-05-15 01:08:00,57.0,25.9,30.02,NE,42,0.0,0.0,30,0.00,,,0.00,VWS V14.00,2013-05-15 05:08:00,
2013-05-15 01:13:00,57.0,25.9,30.02,NE,42,0.0,0.0,30,0.00,,,0.00,VWS V14.00,2013-05-15 05:13:00,
2013-05-15 01:18:00,57.0,26.7,30.02,NE,42,0.0,0.0,31,0.00,,,0.00,VWS V14.00,2013-05-15 05:18:00,
2013-05-15 01:23:00,56.8,27.3,30.02,NE,42,0.0,0.0,32,0.00,,,0.00,VWS V14.00,2013-05-15 05:23:00,
2013-05-15 01:28:00,56.7,27.2,30.02,NE,42,0.0,0.0,32,0.00,,,0.00,VWS V14.00,2013-05-15 05:28:00,
2013-05-15 01:33:00,56.7,27.9,30.02,NE,45,0.0,0.0,33,0.00,,,0.00,VWS V14.00,2013-05-15 05:33:00,
2013-05-15 01:38:00,56.5,27.8,30.02,NE,45,0.0,0.0,33,0.00,,,0.00,VWS V14.00,2013-05-15 05:38:00,
2013-05-15 01:43:00,56.5,28.5,30.02,NE,45,0.0,0.0,34,0.00,,,0.00,VWS V14.00,2013-05-15 05:43:00,
2013-05-15 01:48:00,56.7,28.6,30.02,NE,42,0.0,0.0,34,0.00,,,0.00,VWS V14.00,2013-05-15 05:48:00,
2013-05-15 01:53:00,56.7,27.9,30.02,NE,42,0.0,0.0,33,0.00,,,0.00,VWS V14.00,2013-05-15 05:53:00,
2013-05-15 01:58:00,56.7,27.9,30.02,NE,39,0.0,0.0,33,0.00,,,0.00,VWS V14.00,2013-05-15 05:58:00,
2013-05-15 02:03:00,56.7,27.2,30.02,NE,38,0.0,0.0,32,0.00,,,0.00,VWS V14.00,2013-05-15 06:03:00,
2013-05-15 02:08:00,56.7,27.2,30.02,NE,36,0.0,0.0,32,0.00,,,0.00,VWS V14.00,2013-05-15 06:08:00,
2013-05-15 02:13:00,56.7,27.2,30.02,NNE,23,0.0,0.0,32,0.00,,,0.00,VWS V14.00,2013-05-15 06:13:00,
2013-05-15 02:18:00,56.5,27.0,30.02,NNE,22,3.6,3.6,32,0.00,,,0.00,VWS V14.00,2013-05-15 06:18:00,
2013-05-15 02:23:00,56.3,26.8,29.99,NNE,22,3.1,3.1,32,0.00,,,0.00,VWS V14.00,2013-05-15 06:23:00,
2013-05-15 02:28:00,56.3,27.6,29.99,NNE,22,0.0,0.0,33,0.00,,,0.00,VWS V14.00,2013-05-15 06:28:00,
2013-05-15 02:33:00,55.9,27.3,29.99,NNE,22,0.0,0.0,33,0.00,,,0.00,VWS V14.00,2013-05-15 06:33:00,
2013-05-15 02:38:00,55.9,28.0,29.99,NNE,22,2.7,4.0,34,0.00,,,0.00,VWS V14.00,2013-05-15 06:38:00,
2013-05-15 02:44:00,55.8,27.8,29.99,NNE,17,3.1,4.0,34,0.00,,,0.00,VWS V14.00,2013-05-15 06:44:00,
2013-05-15 02:49:00,55.8,27.8,29.99,NE,37,0.0,3.6,34,0.00,,,0.00,VWS V14.00,2013-05-15 06:49:00,
2013-05-15 02:54:00,55.6,28.4,29.99,NNE,25,0.0,0.0,35,0.00,,,0.00,VWS V14.00,2013-05-15 06:54:00,
2013-05-15 02:59:00,55.6,28.4,29.99,NNE,30,0.0,2.7,35,0.00,,,0.00,VWS V14.00,2013-05-15 06:59:00,
2013-05-15 03:04:00,55.6,28.4,29.99,NNE,19,3.6,3.6,35,0.00,,,0.00,VWS V14.00,2013-05-15 07:04:00,
2013-05-15 03:09:00,55.6,28.4,29.99,NNE,18,4.0,4.0,35,0.00,,,0.00,VWS V14.00,2013-05-15 07:09:00,
2013-05-15 03:14:00,55.4,28.2,29.99,NNE,29,3.1,3.1,35,0.00,,,0.00,VWS V14.00,2013-05-15 07:14:00,
2013-05-15 03:19:00,55.4,28.2,29.99,NNE,29,0.0,0.0,35,0.00,,,0.00,VWS V14.00,2013-05-15 07:19:00,
2013-05-15 03:24:00,55.2,28.1,29.99,NNE,16,3.1,3.1,35,0.00,,,0.00,VWS V14.00,2013-05-15 07:24:00,
2013-05-15 03:29:00,55.2,28.8,29.99,NNE,33,2.7,2.7,36,0.00,,,0.00,VWS V14.00,2013-05-15 07:29:00,
2013-05-15 03:34:00,55.0,28.6,29.99,NNE,12,3.6,3.6,36,0.00,,,0.00,VWS V14.00,2013-05-15 07:34:00,
2013-05-15 03:39:00,55.0,28.6,29.99,NNE,19,0.0,0.0,36,0.00,,,0.00,VWS V14.00,2013-05-15 07:39:00,
2013-05-15 03:44:00,55.0,28.6,29.99,NNE,23,3.6,4.9,36,0.00,,,0.00,VWS V14.00,2013-05-15 07:44:00,
2013-05-15 03:49:00,55.0,28.6,29.99,NE,43,3.1,4.0,36,0.00,,,0.00,VWS V14.00,2013-05-15 07:49:00,
2013-05-15 03:54:00,54.9,28.4,29.99,NNE,19,4.5,4.5,36,0.00,,,0.00,VWS V14.00,2013-05-15 07:54:00,
2013-05-15 03:59:00,54.9,28.4,29.99,NNE,25,3.1,3.6,36,0.00,,,0.00,VWS V14.00,2013-05-15 07:59:00,
2013-05-15 04:04:00,54.9,28.4,29.99,NNE,28,3.1,3.1,36,0.00,,,0.00,VWS V14.00,2013-05-15 08:04:00,
2013-05-15 04:09:00,54.9,28.4,29.99,NE,47,4.9,4.9,36,0.00,,,0.00,VWS V14.00,2013-05-15 08:09:00,
2013-05-15 04:14:00,54.7,28.3,29.99,NNE,15,3.6,4.0,36,0.00,,,0.00,VWS V14.00,2013-05-15 08:14:00,
2013-05-15 04:19:00,54.7,28.3,29.99,NNE,32,3.6,3.6,36,0.00,,,0.00,VWS V14.00,2013-05-15 08:19:00,
2013-05-15 04:24:00,54.7,28.3,29.96,NNE,21,2.7,3.1,36,0.00,,,0.00,VWS V14.00,2013-05-15 08:24:00,
2013-05-15 04:29:00,54.7,28.3,29.96,NNE,22,4.0,4.0,36,0.00,,,0.00,VWS V14.00,2013-05-15 08:29:00,
2013-05-15 04:34:00,54.7,28.3,29.96,NNE,29,3.6,3.6,36,0.00,,,0.00,VWS V14.00,2013-05-15 08:34:00,
2013-05-15 04:39:00,54.7,28.3,29.99,NNE,18,3.6,4.0,36,0.00,,,0.00,VWS V14.00,2013-05-15 08:39:00,
2013-05-15 04:44:00,54.7,28.9,29.99,NNE,24,3.6,3.6,37,0.00,,,0.00,VWS V14.00,2013-05-15 08:44:00,
2013-05-15 04:49:00,54.7,28.9,29.99,NNE,31,3.1,3.1,37,0.00,,,0.00,VWS V14.00,2013-05-15 08:49:00,
2013-05-15 04:54:00,54.5,28.8,29.99,NNE,29,4.0,4.0,37,0.00,,,0.00,VWS V14.00,2013-05-15 08:54:00,
2013-05-15 04:59:00,54.5,28.8,29.99,NNE,28,2.7,2.7,37,0.00,,,0.00,VWS V14.00,2013-05-15 08:59:00,
2013-05-15 05:04:00,54.5,28.8,29.99,NNE,32,3.1,3.1,37,0.00,,,0.00,VWS V14.00,2013-05-15 09:04:00,
2013-05-15 05:09:00,54.5,28.8,29.99,NNE,32,3.6,4.0,37,0.00,,,0.00,VWS V14.00,2013-05-15 09:09:00,
2013-05-15 05:14:00,54.5,28.8,29.99,NNE,18,3.6,3.6,37,0.00,,,0.00,VWS V14.00,2013-05-15 09:14:00,
2013-05-15 05:19:00,54.3,28.6,29.99,NNE,25,2.2,4.0,37,0.00,,,0.00,VWS V14.00,2013-05-15 09:19:00,
2013-05-15 05:24:00,54.3,28.6,29.99,NNE,23,2.7,3.6,37,0.00,,,0.00,VWS V14.00,2013-05-15 09:24:00,
2013-05-15 05:29:00,54.3,29.3,29.99,NNE,31,3.1,3.1,38,0.00,,,0.00,VWS V14.00,2013-05-15 09:29:00,
2013-05-15 05:34:00,54.3,29.3,29.99,NNE,25,3.1,4.0,38,0.00,,,0.00,VWS V14.00,2013-05-15 09:34:00,
2013-05-15 05:39:00,54.1,29.1,29.99,NNE,20,3.1,3.1,38,0.00,,,0.00,VWS V14.00,2013-05-15 09:39:00,
2013-05-15 05:44:00,54.1,29.1,29.99,NNE,31,3.6,3.6,38,0.00,,,0.00,VWS V14.00,2013-05-15 09:44:00,
2013-05-15 05:49:00,54.1,29.1,29.99,NNE,24,2.7,4.0,38,0.00,,,0.00,VWS V14.00,2013-05-15 09:49:00,
2013-05-15 05:54:00,54.1,29.1,29.99,NE,40,0.0,2.7,38,0.00,,,0.00,VWS V14.00,2013-05-15 09:54:00,
2013-05-15 05:59:00,54.1,29.8,29.99,NE,42,3.1,3.1,39,0.00,,,0.00,VWS V14.00,2013-05-15 09:59:00,
2013-05-15 06:04:00,54.1,29.8,29.99,NNE,27,3.1,3.1,39,0.00,,,0.00,VWS V14.00,2013-05-15 10:04:00,
2013-05-15 06:09:00,54.3,29.9,29.99,NE,54,3.1,3.1,39,0.00,,,0.00,VWS V14.00,2013-05-15 10:09:00,
2013-05-15 06:14:00,54.3,29.9,29.99,NNE,32,2.7,3.1,39,0.00,,,0.00,VWS V14.00,2013-05-15 10:14:00,
2013-05-15 06:19:00,54.3,29.9,29.99,North,10,3.1,3.1,39,0.00,,,0.00,VWS V14.00,2013-05-15 10:19:00,
2013-05-15 06:24:00,54.5,30.7,30.02,NE,47,0.0,0.0,40,0.00,,,0.00,VWS V14.00,2013-05-15 10:24:00,
2013-05-15 06:29:00,54.7,30.9,30.02,NE,50,2.2,3.6,40,0.00,,,0.00,VWS V14.00,2013-05-15 10:29:00,
2013-05-15 06:34:00,54.9,31.0,30.02,NNE,32,3.1,3.1,40,0.00,,,0.00,VWS V14.00,2013-05-15 10:34:00,
2013-05-15 06:39:00,55.0,31.2,30.02,NNW,344,4.0,4.0,40,0.00,,,0.00,VWS V14.00,2013-05-15 10:39:00,
2013-05-15 06:44:00,55.2,31.3,30.02,NNE,33,2.7,2.7,40,0.00,,,0.00,VWS V14.00,2013-05-15 10:44:00,
2013-05-15 06:49:00,55.2,31.3,30.02,NNE,19,2.7,2.7,40,0.00,,,0.00,VWS V14.00,2013-05-15 10:49:00,
2013-05-15 06:54:00,55.4,31.5,30.02,NNE,26,0.0,0.0,40,0.00,,,0.00,VWS V14.00,2013-05-15 10:54:00,
2013-05-15 06:59:00,55.4,31.5,30.02,NNE,28,3.1,3.6,40,0.00,,,0.00,VWS V14.00,2013-05-15 10:59:00,
2013-05-15 07:04:00,55.4,31.5,30.02,NNE,28,0.0,0.0,40,0.00,,,0.00,VWS V14.00,2013-05-15 11:04:00,
2013-05-15 07:09:00,55.6,31.7,30.02,NNE,28,2.7,3.6,40,0.00,,,0.00,VWS V14.00,2013-05-15 11:09:00,
2013-05-15 07:14:00,55.6,31.7,30.02,NNE,29,0.0,3.1,40,0.00,,,0.00,VWS V14.00,2013-05-15 11:14:00,
2013-05-15 07:19:00,55.8,31.8,30.02,NE,47,0.0,0.0,40,0.00,,,0.00,VWS V14.00,2013-05-15 11:19:00,
2013-05-15 07:24:00,55.8,31.8,30.02,NE,47,0.0,0.0,40,0.00,,,0.00,VWS V14.00,2013-05-15 11:24:00,
2013-05-15 07:30:00,55.8,31.8,30.02,NE,40,0.0,0.0,40,0.00,,,0.00,VWS V14.00,2013-05-15 11:30:00,
2013-05-15 07:35:00,55.9,32.6,30.02,NNE,24,0.0,0.0,41,0.00,,,0.00,VWS V14.00,2013-05-15 11:35:00,
2013-05-15 07:40:00,55.9,32.6,30.02,North,9,0.0,0.0,41,0.00,,,0.00,VWS V14.00,2013-05-15 11:40:00,
2013-05-15 07:45:00,55.9,32.6,30.02,NE,51,0.0,0.0,41,0.00,,,0.00,VWS V14.00,2013-05-15 11:45:00,
2013-05-15 07:50:00,56.1,33.4,30.02,NE,50,0.0,0.0,42,0.00,,,0.00,VWS V14.00,2013-05-15 11:50:00,
2013-05-15 07:55:00,56.3,33.5,30.02,NE,50,0.0,0.0,42,0.00,,,0.00,VWS V14.00,2013-05-15 11:55:00,
2013-05-15 08:00:00,56.7,33.8,30.02,NE,51,0.0,0.0,42,0.00,,,0.00,VWS V14.00,2013-05-15 12:00:00,
2013-05-15 08:05:00,57.2,34.3,30.02,NE,50,0.0,0.0,42,0.00,,,0.00,VWS V14.00,2013-05-15 12:05:00,
2013-05-15 08:10:00,57.6,34.7,30.02,NNE,17,0.0,0.0,42,0.00,,,0.00,VWS V14.00,2013-05-15 12:10:00,
2013-05-15 08:15:00,57.9,35.0,30.02,NE,55,0.0,0.0,42,0.00,,,0.00,VWS V14.00,2013-05-15 12:15:00,
2013-05-15 08:20:00,58.3,35.3,30.02,NE,49,0.0,2.7,42,0.00,,,0.00,VWS V14.00,2013-05-15 12:20:00,
2013-05-15 08:25:00,58.8,35.8,30.02,NE,54,0.0,2.7,42,0.00,,,0.00,VWS V14.00,2013-05-15 12:25:00,
2013-05-15 08:30:00,59.4,36.3,30.02,NNE,27,2.7,3.6,42,0.00,,,0.00,VWS V14.00,2013-05-15 12:30:00,
2013-05-15 08:36:00,60.1,36.9,29.99,NNE,24,3.1,3.1,42,0.00,,,0.00,VWS V14.00,2013-05-15 12:36:00,
2013-05-15 08:41:00,60.4,36.7,29.99,NE,50,3.1,4.0,41,0.00,,,0.00,VWS V14.00,2013-05-15 12:41:00,
2013-05-15 08:46:00,60.6,36.2,29.99,East,97,2.7,4.0,40,0.00,,,0.00,VWS V14.00,2013-05-15 12:46:00,
2013-05-15 08:51:00,60.6,35.5,29.99,NNE,29,0.0,0.0,39,0.00,,,0.00,VWS V14.00,2013-05-15 12:51:00,
2013-05-15 08:56:00,60.8,35.7,29.99,NNE,25,0.0,0.0,39,0.00,,,0.00,VWS V14.00,2013-05-15 12:56:00,
2013-05-15 09:01:00,60.8,35.7,29.99,NNE,31,0.0,0.0,39,0.00,,,0.00,VWS V14.00,2013-05-15 13:01:00,
2013-05-15 09:06:00,60.8,35.7,29.99,North,8,2.2,2.2,39,0.00,,,0.00,VWS V14.00,2013-05-15 13:06:00,
2013-05-15 09:16:00,60.6,36.2,29.99,NE,37,0.0,0.0,40,0.00,,,0.00,VWS V14.00,2013-05-15 13:16:00,
2013-05-15 09:21:00,60.8,36.3,29.99,NNE,33,0.0,0.0,40,0.00,,,0.00,VWS V14.00,2013-05-15 13:21:00,
2013-05-15 09:26:00,61.2,36.7,29.99,SSW,206,0.0,0.0,40,0.00,,,0.00,VWS V14.00,2013-05-15 13:26:00,
2013-05-15 09:31:00,61.5,37.0,29.99,NNW,330,0.0,0.0,40,0.00,,,0.00,VWS V14.00,2013-05-15 13:31:00,
2013-05-15 09:37:00,61.9,37.3,29.99,NNW,341,0.0,0.0,40,0.00,,,0.00,VWS V14.00,2013-05-15 13:37:00,
2013-05-15 09:42:00,62.4,38.4,29.99,NNW,341,0.0,0.0,41,0.00,,,0.00,VWS V14.00,2013-05-15 13:42:00,
2013-05-15 09:47:00,63.0,38.3,29.99,NNW,341,0.0,0.0,40,0.00,,,0.00,VWS V14.00,2013-05-15 13:47:00,
2013-05-15 09:52:00,63.1,38.5,29.99,NNW,340,0.0,0.0,40,0.00,,,0.00,VWS V14.00,2013-05-15 13:52:00,
2013-05-15 09:57:00,63.7,38.9,29.99,NNW,340,0.0,0.0,40,0.00,,,0.00,VWS V14.00,2013-05-15 13:57:00,
2013-05-15 10:02:00,64.2,40.0,29.99,North,5,0.0,0.0,41,0.00,,,0.00,VWS V14.00,2013-05-15 14:02:00,
2013-05-15 10:07:00,64.8,39.9,29.99,North,5,0.0,0.0,40,0.00,,,0.00,VWS V14.00,2013-05-15 14:07:00,
2013-05-15 10:12:00,65.3,40.4,29.99,North,5,0.0,0.0,40,0.00,,,0.00,VWS V14.00,2013-05-15 14:12:00,
2013-05-15 10:18:00,66.0,41.7,29.99,NNW,335,0.0,0.0,41,0.00,,,0.00,VWS V14.00,2013-05-15 14:18:00,
2013-05-15 10:23:00,67.1,41.3,29.99,NE,51,2.2,3.1,39,0.00,,,0.00,VWS V14.00,2013-05-15 14:23:00,
2013-05-15 10:28:00,68.2,40.2,29.99,NE,36,0.0,0.0,36,0.00,,,0.00,VWS V14.00,2013-05-15 14:28:00,
2013-05-15 10:33:00,68.5,39.8,29.99,North,2,2.7,4.0,35,0.00,,,0.00,VWS V14.00,2013-05-15 14:33:00,
2013-05-15 10:38:00,69.3,40.5,29.99,North,2,0.0,0.0,35,0.00,,,0.00,VWS V14.00,2013-05-15 14:38:00,
2013-05-15 10:43:00,70.5,40.8,29.99,North,7,0.0,0.0,34,0.00,,,0.00,VWS V14.00,2013-05-15 14:43:00,
2013-05-15 10:48:00,71.1,39.7,29.99,NNE,18,0.0,0.0,32,0.00,,,0.00,VWS V14.00,2013-05-15 14:48:00,
2013-05-15 10:54:00,71.8,40.4,29.99,North,4,3.1,3.1,32,0.00,,,0.00,VWS V14.00,2013-05-15 14:54:00,
2013-05-15 10:59:00,72.9,41.3,29.99,North,357,2.2,4.0,32,0.00,,,0.00,VWS V14.00,2013-05-15 14:59:00,
2013-05-15 11:04:00,72.9,40.5,29.99,NNE,14,3.1,4.0,31,0.00,,,0.00,VWS V14.00,2013-05-15 15:04:00,
2013-05-15 11:10:00,72.9,40.5,29.99,North,9,0.0,0.0,31,0.00,,,0.00,VWS V14.00,2013-05-15 15:10:00,
2013-05-15 11:15:00,73.4,39.2,29.99,NNE,24,2.7,3.1,29,0.00,,,0.00,VWS V14.00,2013-05-15 15:15:00,
2013-05-15 11:20:00,74.5,41.0,29.99,NNE,23,0.0,0.0,30,0.00,,,0.00,VWS V14.00,2013-05-15 15:20:00,
2013-05-15 11:25:00,75.6,41.1,29.99,North,10,3.1,3.6,29,0.00,,,0.00,VWS V14.00,2013-05-15 15:25:00,
2013-05-15 11:30:00,75.2,38.0,29.99,North,2,3.1,3.1,26,0.00,,,0.00,VWS V14.00,2013-05-15 15:30:00,
2013-05-15 11:35:00,75.7,40.3,29.99,ENE,74,3.1,3.1,28,0.00,,,0.00,VWS V14.00,2013-05-15 15:35:00,
2013-05-15 11:40:00,76.5,38.1,29.99,NNE,28,2.2,2.2,25,0.00,,,0.00,VWS V14.00,2013-05-15 15:40:00,
2013-05-15 11:45:00,75.4,37.2,29.99,North,4,3.1,3.1,25,0.00,,,0.00,VWS V14.00,2013-05-15 15:45:00,
2013-05-15 11:50:00,74.7,37.5,29.99,ENE,58,0.0,0.0,26,0.00,,,0.00,VWS V14.00,2013-05-15 15:50:00,
2013-05-15 11:55:00,74.8,41.4,29.99,North,357,3.6,3.6,30,0.00,,,0.00,VWS V14.00,2013-05-15 15:55:00,
2013-05-15 12:00:00,75.2,39.9,29.99,ENE,62,2.7,3.6,28,0.00,,,0.00,VWS V14.00,2013-05-15 16:00:00,
2013-05-15 12:05:00,75.7,39.4,29.99,NNE,13,0.0,2.7,27,0.00,,,0.00,VWS V14.00,2013-05-15 16:05:00,
2013-05-15 12:10:00,76.6,41.1,29.99,NNE,33,3.1,3.1,28,0.00,,,0.00,VWS V14.00,2013-05-15 16:10:00,
2013-05-15 12:15:00,77.9,39.3,29.99,North,3,3.1,4.0,25,0.00,,,0.00,VWS V14.00,2013-05-15 16:15:00,
2013-05-15 12:21:00,78.3,38.5,29.96,NE,36,0.0,0.0,24,0.00,,,0.00,VWS V14.00,2013-05-15 16:21:00,
2013-05-15 12:27:00,77.9,39.3,29.96,NNE,18,3.6,4.0,25,0.00,,,0.00,VWS V14.00,2013-05-15 16:27:00,
2013-05-15 12:31:00,76.8,39.4,29.96,SE,137,4.9,4.9,26,0.00,,,0.00,VWS V14.00,2013-05-15 16:31:00,
2013-05-15 12:37:00,75.7,39.4,29.96,NNE,26,0.0,0.0,27,0.00,,,0.00,VWS V14.00,2013-05-15 16:37:00,
2013-05-15 12:42:00,75.0,41.5,29.96,North,9,0.0,0.0,30,0.00,,,0.00,VWS V14.00,2013-05-15 16:42:00,
2013-05-15 12:47:00,75.2,41.7,29.96,NE,46,0.0,0.0,30,0.00,,,0.00,VWS V14.00,2013-05-15 16:47:00,
2013-05-15 12:52:00,75.7,41.3,29.96,NNE,23,3.6,3.6,29,0.00,,,0.00,VWS V14.00,2013-05-15 16:52:00,
2013-05-15 12:57:00,76.1,41.6,29.96,NE,42,0.0,0.0,29,0.00,,,0.00,VWS V14.00,2013-05-15 16:57:00,
2013-05-15 13:02:00,76.6,43.8,29.96,North,3,0.0,2.2,31,0.00,,,0.00,VWS V14.00,2013-05-15 17:02:00,
2013-05-15 13:07:00,77.4,43.5,29.96,North,0,0.0,4.0,30,0.00,,,0.00,VWS V14.00,2013-05-15 17:07:00,
2013-05-15 13:12:00,79.0,44.9,29.96,East,87,0.0,0.0,30,0.00,,,0.00,VWS V14.00,2013-05-15 17:12:00,
2013-05-15 13:17:00,79.7,43.8,29.96,North,2,3.1,3.1,28,0.00,,,0.00,VWS V14.00,2013-05-15 17:17:00,
2013-05-15 13:23:00,79.7,42.8,29.93,NE,47,0.0,0.0,27,0.00,,,0.00,VWS V14.00,2013-05-15 17:23:00,
2013-05-15 13:28:00,79.3,42.5,29.93,NE,47,0.0,0.0,27,0.00,,,0.00,VWS V14.00,2013-05-15 17:28:00,
2013-05-15 13:33:00,81.0,42.9,29.93,NNE,12,3.1,3.1,26,0.00,,,0.00,VWS V14.00,2013-05-15 17:33:00,
2013-05-15 13:38:00,81.9,41.6,29.93,North,11,2.7,3.1,24,0.00,,,0.00,VWS V14.00,2013-05-15 17:38:00,
2013-05-15 13:43:00,82.8,40.1,29.93,ESE,121,4.5,4.5,22,0.00,,,0.00,VWS V14.00,2013-05-15 17:43:00,
2013-05-15 13:48:00,84.4,39.0,29.93,East,85,2.7,4.0,20,0.00,,,0.00,VWS V14.00,2013-05-15 17:48:00,
2013-05-15 13:53:00,85.8,40.2,29.93,NNE,22,4.9,4.9,20,0.00,,,0.00,VWS V14.00,2013-05-15 17:53:00,
2013-05-15 13:58:00,87.1,39.9,29.93,North,357,3.1,3.1,19,0.00,,,0.00,VWS V14.00,2013-05-15 17:58:00,
2013-05-15 14:03:00,88.0,40.6,29.93,North,11,0.0,0.0,19,0.00,,,0.00,VWS V14.00,2013-05-15 18:03:00,
2013-05-15 14:08:00,88.2,40.8,29.90,NNE,27,4.9,4.9,19,0.00,,,0.00,VWS V14.00,2013-05-15 18:08:00,
2013-05-15 14:14:00,88.3,39.5,29.90,NNW,343,3.1,4.9,18,0.00,,,0.00,VWS V14.00,2013-05-15 18:14:00,
2013-05-15 14:19:00,88.7,39.8,29.90,SSE,160,3.1,3.1,18,0.00,,,0.00,VWS V14.00,2013-05-15 18:19:00,
2013-05-15 14:24:00,88.9,39.9,29.90,ENE,64,5.8,5.8,18,0.00,,,0.00,VWS V14.00,2013-05-15 18:24:00,
2013-05-15 14:29:00,89.2,40.2,29.90,North,353,4.9,4.9,18,0.00,,,0.00,VWS V14.00,2013-05-15 18:29:00,
2013-05-15 14:34:00,89.8,40.7,29.90,NE,35,3.1,3.1,18,0.00,,,0.00,VWS V14.00,2013-05-15 18:34:00,
2013-05-15 14:39:00,90.5,39.8,29.90,North,5,4.9,4.9,17,0.00,,,0.00,VWS V14.00,2013-05-15 18:39:00,
2013-05-15 14:44:00,90.5,41.3,29.90,ENE,75,0.0,0.0,18,0.00,,,0.00,VWS V14.00,2013-05-15 18:44:00,
2013-05-15 14:49:00,91.0,40.2,29.90,North,7,2.7,4.0,17,0.00,,,0.00,VWS V14.00,2013-05-15 18:49:00,
2013-05-15 14:55:00,91.4,40.5,29.87,North,357,0.0,2.7,17,0.00,,,0.00,VWS V14.00,2013-05-15 18:55:00,
2013-05-15 15:01:00,91.6,40.7,29.87,NE,49,2.7,4.0,17,0.00,,,0.00,VWS V14.00,2013-05-15 19:01:00,
2013-05-15 15:06:00,91.8,40.8,29.87,North,4,4.0,4.0,17,0.00,,,0.00,VWS V14.00,2013-05-15 19:06:00,
2013-05-15 15:11:00,92.1,41.1,29.87,North,11,0.0,0.0,17,0.00,,,0.00,VWS V14.00,2013-05-15 19:11:00,
2013-05-15 15:16:00,92.7,41.5,29.87,NNE,21,3.1,3.1,17,0.00,,,0.00,VWS V14.00,2013-05-15 19:16:00,
2013-05-15 15:21:00,92.8,41.7,29.87,ENE,71,0.0,3.1,17,0.00,,,0.00,VWS V14.00,2013-05-15 19:21:00,
2013-05-15 15:26:00,93.0,36.8,29.87,NE,47,3.1,4.9,14,0.00,,,0.00,VWS V14.00,2013-05-15 19:26:00,
2013-05-15 15:32:00,92.8,36.7,29.87,North,0,2.7,2.7,14,0.00,,,0.00,VWS V14.00,2013-05-15 19:32:00,
2013-05-15 15:37:00,93.0,36.8,29.87,NNE,18,4.0,4.0,14,0.00,,,0.00,VWS V14.00,2013-05-15 19:37:00,
2013-05-15 15:42:00,93.0,36.8,29.87,North,0,3.1,3.1,14,0.00,,,0.00,VWS V14.00,2013-05-15 19:42:00,
2013-05-15 15:47:00,93.2,37.0,29.87,North,6,3.1,3.6,14,0.00,,,0.00,VWS V14.00,2013-05-15 19:47:00,
2013-05-15 15:52:00,93.4,37.1,29.87,East,92,3.1,3.1,14,0.00,,,0.00,VWS V14.00,2013-05-15 19:52:00,
2013-05-15 15:57:00,93.4,37.1,29.87,North,8,4.0,4.0,14,0.00,,,0.00,VWS V14.00,2013-05-15 19:57:00,
2013-05-15 16:02:00,93.4,37.1,29.87,NW,304,3.1,3.1,14,0.00,,,0.00,VWS V14.00,2013-05-15 20:02:00,
2013-05-15 16:08:00,93.4,37.1,29.84,North,357,4.9,4.9,14,0.00,,,0.00,VWS V14.00,2013-05-15 20:08:00,
2013-05-15 16:13:00,93.4,37.1,29.84,North,4,2.7,6.3,14,0.00,,,0.00,VWS V14.00,2013-05-15 20:13:00,
2013-05-15 16:18:00,93.6,37.3,29.84,NNE,20,3.1,5.8,14,0.00,,,0.00,VWS V14.00,2013-05-15 20:18:00,
2013-05-15 16:23:00,93.6,31.2,29.84,NE,52,3.6,4.0,11,0.00,,,0.00,VWS V14.00,2013-05-15 20:23:00,
2013-05-15 16:29:00,93.4,31.1,29.84,ENE,62,3.1,4.9,11,0.00,,,0.00,VWS V14.00,2013-05-15 20:29:00,
2013-05-15 16:34:00,93.4,37.1,29.84,North,8,4.0,4.0,14,0.00,,,0.00,VWS V14.00,2013-05-15 20:34:00,
2013-05-15 16:39:00,93.2,37.0,29.84,NE,41,3.6,4.0,14,0.00,,,0.00,VWS V14.00,2013-05-15 20:39:00,
2013-05-15 16:44:00,93.2,37.0,29.84,ENE,63,3.1,4.9,14,0.00,,,0.00,VWS V14.00,2013-05-15 20:44:00,
2013-05-15 16:50:00,93.0,36.8,29.84,North,357,3.1,3.6,14,0.00,,,0.00,VWS V14.00,2013-05-15 20:50:00,
2013-05-15 16:55:00,93.2,37.0,29.84,NNE,23,3.6,3.6,14,0.00,,,0.00,VWS V14.00,2013-05-15 20:55:00,
2013-05-15 17:00:00,93.2,37.0,29.84,NNE,12,2.7,3.6,14,0.00,,,0.00,VWS V14.00,2013-05-15 21:00:00,
2013-05-15 17:05:00,93.2,37.0,29.84,NNE,19,6.7,6.7,14,0.00,,,0.00,VWS V14.00,2013-05-15 21:05:00,
2013-05-15 17:11:00,92.7,36.5,29.84,NNE,27,5.4,5.4,14,0.00,,,0.00,VWS V14.00,2013-05-15 21:11:00,
2013-05-15 17:16:00,92.5,36.4,29.84,NE,36,5.8,5.8,14,0.00,,,0.00,VWS V14.00,2013-05-15 21:16:00,
2013-05-15 17:21:00,92.3,36.3,29.84,North,10,4.0,5.4,14,0.00,,,0.00,VWS V14.00,2013-05-15 21:21:00,
2013-05-15 17:26:00,92.1,36.1,29.84,East,88,2.7,4.0,14,0.00,,,0.00,VWS V14.00,2013-05-15 21:26:00,
2013-05-15 17:31:00,91.6,35.7,29.84,NNE,18,4.9,4.9,14,0.00,,,0.00,VWS V14.00,2013-05-15 21:31:00,
2013-05-15 17:37:00,91.4,35.6,29.84,NNE,17,3.1,4.0,14,0.00,,,0.00,VWS V14.00,2013-05-15 21:37:00,
2013-05-15 17:41:00,91.2,37.2,29.84,North,6,3.6,4.0,15,0.00,,,0.00,VWS V14.00,2013-05-15 21:41:00,
2013-05-15 17:47:00,91.0,37.0,29.84,North,7,2.7,4.0,15,0.00,,,0.00,VWS V14.00,2013-05-15 21:47:00,
2013-05-15 17:52:00,90.9,36.9,29.84,NE,45,0.0,2.2,15,0.00,,,0.00,VWS V14.00,2013-05-15 21:52:00,
2013-05-15 17:57:00,90.9,36.9,29.84,NNE,26,4.9,4.9,15,0.00,,,0.00,VWS V14.00,2013-05-15 21:57:00,
2013-05-15 18:03:00,90.1,36.3,29.84,North,11,4.0,4.0,15,0.00,,,0.00,VWS V14.00,2013-05-15 22:03:00,
2013-05-15 18:08:00,89.6,35.9,29.81,NNE,19,2.2,3.1,15,0.00,,,0.00,VWS V14.00,2013-05-15 22:08:00,
2013-05-15 18:13:00,88.9,35.3,29.81,NE,38,2.2,3.6,15,0.00,,,0.00,VWS V14.00,2013-05-15 22:13:00,
2013-05-15 18:18:00,88.3,39.5,29.81,NE,34,3.1,3.1,18,0.00,,,0.00,VWS V14.00,2013-05-15 22:18:00,
2013-05-15 18:23:00,88.5,39.7,29.81,North,11,2.7,4.0,18,0.00,,,0.00,VWS V14.00,2013-05-15 22:23:00,
2013-05-15 18:28:00,88.2,39.4,29.81,North,10,0.0,2.2,18,0.00,,,0.00,VWS V14.00,2013-05-15 22:28:00,
2013-05-15 18:33:00,87.4,38.8,29.81,NNE,16,2.7,3.1,18,0.00,,,0.00,VWS V14.00,2013-05-15 22:33:00,
2013-05-15 18:38:00,87.3,38.6,29.81,NNE,26,3.1,4.0,18,0.00,,,0.00,VWS V14.00,2013-05-15 22:38:00,
2013-05-15 18:43:00,86.9,38.3,29.81,NNE,12,3.6,3.6,18,0.00,,,0.00,VWS V14.00,2013-05-15 22:43:00,
2013-05-15 18:49:00,86.4,37.9,29.81,NNE,31,0.0,3.6,18,0.00,,,0.00,VWS V14.00,2013-05-15 22:49:00,
2013-05-15 18:54:00,86.2,37.8,29.81,NNE,13,3.1,3.6,18,0.00,,,0.00,VWS V14.00,2013-05-15 22:54:00,
2013-05-15 18:59:00,85.6,38.7,29.81,NNE,27,3.1,3.1,19,0.00,,,0.00,VWS V14.00,2013-05-15 22:59:00,
2013-05-15 19:04:00,85.1,38.2,29.81,North,11,3.6,3.6,19,0.00,,,0.00,VWS V14.00,2013-05-15 23:04:00,
2013-05-15 19:09:00,84.6,37.8,29.81,NNE,27,2.7,2.7,19,0.00,,,0.00,VWS V14.00,2013-05-15 23:09:00,
2013-05-15 19:15:00,84.2,38.8,29.81,NNE,13,3.1,3.6,20,0.00,,,0.00,VWS V14.00,2013-05-15 23:15:00,
2013-05-15 19:20:00,84.0,38.7,29.81,NE,48,0.0,0.0,20,0.00,,,0.00,VWS V14.00,2013-05-15 23:20:00,
2013-05-15 19:25:00,83.7,38.4,29.81,NE,35,0.0,0.0,20,0.00,,,0.00,VWS V14.00,2013-05-15 23:25:00,
2013-05-15 19:30:00,83.3,38.1,29.81,NNE,31,3.1,3.6,20,0.00,,,0.00,VWS V14.00,2013-05-15 23:30:00,
2013-05-15 19:35:00,82.9,37.8,29.84,NE,41,0.0,0.0,20,0.00,,,0.00,VWS V14.00,2013-05-15 23:35:00,
2013-05-15 19:40:00,82.6,38.7,29.84,North,4,0.0,0.0,21,0.00,,,0.00,VWS V14.00,2013-05-15 23:40:00,
2013-05-15 19:45:00,82.2,38.4,29.84,North,4,0.0,0.0,21,0.00,,,0.00,VWS V14.00,2013-05-15 23:45:00,
2013-05-15 19:50:00,81.9,39.3,29.84,NE,52,2.7,4.0,22,0.00,,,0.00,VWS V14.00,2013-05-15 23:50:00,
2013-05-15 19:56:00,81.7,39.2,29.84,NNE,15,0.0,0.0,22,0.00,,,0.00,VWS V14.00,2013-05-15 23:56:00,
2013-05-15 20:01:00,81.3,38.9,29.84,NNE,26,0.0,0.0,22,0.00,,,0.00,VWS V14.00,2013-05-16 00:01:00,
2013-05-15 20:06:00,81.0,38.6,29.84,NNE,26,0.0,0.0,22,0.00,,,0.00,VWS V14.00,2013-05-16 00:06:00,
2013-05-15 20:11:00,80.6,39.4,29.84,ENE,65,0.0,0.0,23,0.00,,,0.00,VWS V14.00,2013-05-16 00:11:00,
2013-05-15 20:16:00,80.2,40.2,29.84,ENE,60,0.0,0.0,24,0.00,,,0.00,VWS V14.00,2013-05-16 00:16:00,
2013-05-15 20:21:00,79.9,39.9,29.84,ENE,57,0.0,0.0,24,0.00,,,0.00,VWS V14.00,2013-05-16 00:21:00,
2013-05-15 20:26:00,79.5,40.7,29.84,NE,44,0.0,0.0,25,0.00,,,0.00,VWS V14.00,2013-05-16 00:26:00,
2013-05-15 20:31:00,79.3,40.5,29.84,ENE,59,0.0,0.0,25,0.00,,,0.00,VWS V14.00,2013-05-16 00:31:00,
2013-05-15 20:37:00,79.2,40.3,29.84,NE,37,0.0,0.0,25,0.00,,,0.00,VWS V14.00,2013-05-16 00:37:00,
2013-05-15 20:42:00,79.0,40.2,29.84,NE,37,0.0,0.0,25,0.00,,,0.00,VWS V14.00,2013-05-16 00:42:00,
2013-05-15 20:48:00,78.6,40.9,29.84,NE,37,0.0,0.0,26,0.00,,,0.00,VWS V14.00,2013-05-16 00:48:00,
2013-05-15 20:53:00,78.4,40.8,29.84,NE,34,0.0,0.0,26,0.00,,,0.00,VWS V14.00,2013-05-16 00:53:00,
2013-05-15 20:58:00,78.3,41.6,29.84,North,353,0.0,0.0,27,0.00,,,0.00,VWS V14.00,2013-05-16 00:58:00,
2013-05-15 21:03:00,78.1,41.4,29.84,NNE,15,2.7,2.7,27,0.00,,,0.00,VWS V14.00,2013-05-16 01:03:00,
2013-05-15 21:08:00,77.9,41.3,29.84,NNE,20,3.1,3.1,27,0.00,,,0.00,VWS V14.00,2013-05-16 01:08:00,
2013-05-15 21:13:00,77.7,41.1,29.84,NE,40,0.0,3.1,27,0.00,,,0.00,VWS V14.00,2013-05-16 01:13:00,
2013-05-15 21:19:00,77.4,41.7,29.84,NE,41,0.0,0.0,28,0.00,,,0.00,VWS V14.00,2013-05-16 01:19:00,
2013-05-15 21:24:00,77.2,41.6,29.84,NNE,13,0.0,0.0,28,0.00,,,0.00,VWS V14.00,2013-05-16 01:24:00,
2013-05-15 21:29:00,77.2,41.6,29.84,NNE,28,0.0,0.0,28,0.00,,,0.00,VWS V14.00,2013-05-16 01:29:00,
2013-05-15 21:35:00,77.0,40.5,29.84,NE,37,3.1,3.1,27,0.00,,,0.00,VWS V14.00,2013-05-16 01:35:00,
2013-05-15 21:41:00,77.0,40.5,29.87,NE,44,0.0,2.2,27,0.00,,,0.00,VWS V14.00,2013-05-16 01:41:00,
2013-05-15 21:46:00,77.0,41.4,29.87,NE,39,0.0,0.0,28,0.00,,,0.00,VWS V14.00,2013-05-16 01:46:00,
2013-05-15 21:51:00,76.6,41.1,29.87,North,10,3.1,3.1,28,0.00,,,0.00,VWS V14.00,2013-05-16 01:51:00,
2013-05-15 21:56:00,76.5,41.0,29.87,NE,38,2.7,3.1,28,0.00,,,0.00,VWS V14.00,2013-05-16 01:56:00,
2013-05-15 22:01:00,76.3,41.7,29.87,NNE,33,0.0,0.0,29,0.00,,,0.00,VWS V14.00,2013-05-16 02:01:00,
2013-05-15 22:06:00,75.9,41.4,29.87,NE,39,0.0,0.0,29,0.00,,,0.00,VWS V14.00,2013-05-16 02:06:00,
2013-05-15 22:11:00,75.7,42.1,29.87,NNE,31,3.1,3.1,30,0.00,,,0.00,VWS V14.00,2013-05-16 02:11:00,
2013-05-15 22:16:00,75.7,42.1,29.87,ENE,72,0.0,0.0,30,0.00,,,0.00,VWS V14.00,2013-05-16 02:16:00,
2013-05-15 22:21:00,75.6,42.0,29.87,East,89,0.0,0.0,30,0.00,,,0.00,VWS V14.00,2013-05-16 02:21:00,
2013-05-15 22:27:00,75.4,42.7,29.87,NE,35,0.0,0.0,31,0.00,,,0.00,VWS V14.00,2013-05-16 02:27:00,
2013-05-15 22:32:00,75.4,42.7,29.87,NE,40,0.0,0.0,31,0.00,,,0.00,VWS V14.00,2013-05-16 02:32:00,
2013-05-15 22:37:00,75.2,42.5,29.87,NE,39,0.0,0.0,31,0.00,,,0.00,VWS V14.00,2013-05-16 02:37:00,
2013-05-15 22:42:00,75.2,42.5,29.87,NE,35,0.0,0.0,31,0.00,,,0.00,VWS V14.00,2013-05-16 02:42:00,
2013-05-15 22:47:00,75.0,42.4,29.87,NE,56,0.0,0.0,31,0.00,,,0.00,VWS V14.00,2013-05-16 02:47:00,
2013-05-15 22:52:00,74.8,42.2,29.87,ENE,58,0.0,0.0,31,0.00,,,0.00,VWS V14.00,2013-05-16 02:52:00,
2013-05-15 22:57:00,74.7,42.0,29.87,ENE,58,0.0,0.0,31,0.00,,,0.00,VWS V14.00,2013-05-16 02:57:00,
2013-05-15 23:02:00,74.3,41.7,29.87,NE,35,0.0,0.0,31,0.00,,,0.00,VWS V14.00,2013-05-16 03:02:00,
2013-05-15 23:08:00,74.1,42.4,29.87,NNE,26,0.0,0.0,32,0.00,,,0.00,VWS V14.00,2013-05-16 03:08:00,
2013-05-15 23:13:00,74.1,42.4,29.87,ENE,68,0.0,0.0,32,0.00,,,0.00,VWS V14.00,2013-05-16 03:13:00,
2013-05-15 23:18:00,73.8,42.1,29.87,SSE,147,0.0,0.0,32,0.00,,,0.00,VWS V14.00,2013-05-16 03:18:00,
2013-05-15 23:23:00,73.6,41.9,29.87,East,93,0.0,0.0,32,0.00,,,0.00,VWS V14.00,2013-05-16 03:23:00,
2013-05-15 23:28:00,73.4,41.8,29.87,ENE,68,0.0,0.0,32,0.00,,,0.00,VWS V14.00,2013-05-16 03:28:00,
2013-05-15 23:33:00,73.2,42.4,29.87,North,0,2.2,2.2,33,0.00,,,0.00,VWS V14.00,2013-05-16 03:33:00,
2013-05-15 23:38:00,73.0,42.3,29.87,ENE,68,0.0,0.0,33,0.00,,,0.00,VWS V14.00,2013-05-16 03:38:00,
2013-05-15 23:44:00,72.7,42.7,29.87,ENE,69,0.0,0.0,34,0.00,,,0.00,VWS V14.00,2013-05-16 03:44:00,
2013-05-15 23:49:00,72.3,42.4,29.87,North,0,0.0,0.0,34,0.00,,,0.00,VWS V14.00,2013-05-16 03:49:00,
2013-05-15 23:54:00,72.1,42.2,29.87,North,0,0.0,0.0,34,0.00,,,0.00,VWS V14.00,2013-05-16 03:54:00,